"Sample Date","Sample Time","Sample Value","Units","Flow Rate","Laser Status","Micron Size 0","Counts/Channel 0","Micron Size 1","Counts/Channel 1","Micron Size 2","Counts/Channel 2","Micron Size 3","Counts/Channel 3","Micron Size 4","Counts/Channel 4","Micron Size 5","Counts/Channel 5","Micron Size 6","Counts/Channel 6","Micron Size 7","Counts/Channel 7","Micron Size 8","Counts/Channel 8","Micron Size 9","Counts/Channel 9","Micron Size 10","Counts/Channel 10","Micron Size 11","Counts/Channel 11","Micron Size 12","Counts/Channel 12","Micron Size 13","Counts/Channel 13","Micron Size 14","Counts/Channel 14","Micron Size 15","Counts/Channel 15","Micron Size 16","Counts/Channel 16","Micron Size 17","Counts/Channel 17","Micron Size 18","Counts/Channel 18","Micron Size 19","Counts/Channel 19","Micron Size 20","Counts/Channel 20","Micron Size 21","Counts/Channel 21","Micron Size 22","Counts/Channel 22","Micron Size 23","Counts/Channel 23","Micron Size 24","Counts/Channel 24","Micron Size 25","Counts/Channel 25","Micron Size 26","Counts/Channel 26","Micron Size 27","Counts/Channel 27","Micron Size 28","Counts/Channel 28","Micron Size 29","Counts/Channel 29","Micron Size 30","Counts/Channel 30","Micron Size 31","Counts/Channel 31"
"05/03/07","08:00:05",24189.000,"cc",28367.232,1,0.100,19107.000,0.200,4478.000,0.300,543.000,0.500,48.000,1.000,13.000,5.000,0
"05/03/07","08:00:11",23953.000,"cc",28334.607,1,0.100,18890.000,0.200,4424.000,0.300,561.000,0.500,55.000,1.000,23.000,5.000,0
"05/03/07","08:00:17",24176.000,"cc",28295.748,1,0.100,19204.000,0.200,4333.000,0.300,547.000,0.500,70.000,1.000,22.000,5.000,0
"05/03/07","08:00:23",23849.000,"cc",28284.395,1,0.100,18870.000,0.200,4375.000,0.300,531.000,0.500,59.000,1.000,14.000,5.000,0
"05/03/07","08:00:29",23889.000,"cc",28320.850,1,0.100,18856.000,0.200,4435.000,0.300,510.000,0.500,67.000,1.000,21.000,5.000,0
"05/03/07","08:00:35",23204.000,"cc",28348.143,1,0.100,18288.000,0.200,4316.000,0.300,521.000,0.500,59.000,1.000,20.000,5.000,0
"05/03/07","08:00:41",23695.000,"cc",28359.604,1,0.100,18781.000,0.200,4300.000,0.300,546.000,0.500,54.000,1.000,14.000,5.000,0
"05/03/07","08:00:47",23267.000,"cc",28266.367,1,0.100,18399.000,0.200,4246.000,0.300,527.000,0.500,73.000,1.000,22.000,5.000,0
"05/03/07","08:00:53",23648.000,"cc",28283.184,1,0.100,18801.000,0.200,4271.000,0.300,506.000,0.500,61.000,1.000,9.000,5.000,0
"05/03/07","08:00:59",23312.000,"cc",28332.803,1,0.100,18419.000,0.200,4264.000,0.300,548.000,0.500,65.000,1.000,16.000,5.000,0
"05/03/07","08:01:05",23453.000,"cc",28282.535,1,0.100,18538.000,0.200,4312.000,0.300,525.000,0.500,61.000,1.000,17.000,5.000,0
"05/03/07","08:01:11",23527.000,"cc",28367.850,1,0.100,18574.000,0.200,4302.000,0.300,562.000,0.500,70.000,1.000,19.000,5.000,0
"05/03/07","08:01:17",23456.000,"cc",28315.057,1,0.100,18556.000,0.200,4308.000,0.300,521.000,0.500,54.000,1.000,17.000,5.000,0
"05/03/07","08:01:23",23495.000,"cc",28290.791,1,0.100,18536.000,0.200,4334.000,0.300,541.000,0.500,63.000,1.000,21.000,5.000,0
"05/03/07","08:01:29",23378.000,"cc",28323.055,1,0.100,18425.000,0.200,4288.000,0.300,574.000,0.500,69.000,1.000,22.000,5.000,0
"05/03/07","08:01:35",23398.000,"cc",28276.160,1,0.100,18604.000,0.200,4207.000,0.300,513.000,0.500,60.000,1.000,14.000,5.000,0
"05/03/07","08:01:41",23805.000,"cc",28282.654,1,0.100,18839.000,0.200,4361.000,0.300,532.000,0.500,59.000,1.000,14.000,5.000,0
"05/03/07","08:01:47",23678.000,"cc",28312.447,1,0.100,18726.000,0.200,4309.000,0.300,572.000,0.500,51.000,1.000,20.000,5.000,0
"05/03/07","08:01:53",23693.000,"cc",28354.576,1,0.100,18678.000,0.200,4422.000,0.300,518.000,0.500,60.000,1.000,15.000,5.000,0
"05/03/07","08:01:59",23552.000,"cc",28346.424,1,0.100,18603.000,0.200,4335.000,0.300,553.000,0.500,43.000,1.000,18.000,5.000,0
"05/03/07","08:02:05",23568.000,"cc",28355.977,1,0.100,18695.000,0.200,4256.000,0.300,552.000,0.500,53.000,1.000,12.000,5.000,0
"05/03/07","08:02:11",23517.000,"cc",28319.109,1,0.100,18534.000,0.200,4360.000,0.300,541.000,0.500,64.000,1.000,18.000,5.000,0
"05/03/07","08:02:17",23509.000,"cc",28310.322,1,0.100,18595.000,0.200,4262.000,0.300,573.000,0.500,64.000,1.000,15.000,5.000,0
"05/03/07","08:02:23",23498.000,"cc",28277.652,1,0.100,18492.000,0.200,4385.000,0.300,527.000,0.500,74.000,1.000,20.000,5.000,0
"05/03/07","08:02:29",23495.000,"cc",28316.811,1,0.100,18503.000,0.200,4374.000,0.300,543.000,0.500,65.000,1.000,10.000,5.000,0
"05/03/07","08:02:35",23502.000,"cc",28333.178,1,0.100,18560.000,0.200,4326.000,0.300,543.000,0.500,54.000,1.000,19.000,5.000,0
"05/03/07","08:02:41",23730.000,"cc",28335.807,1,0.100,18706.000,0.200,4406.000,0.300,538.000,0.500,63.000,1.000,17.000,5.000,0
"05/03/07","08:02:47",23739.000,"cc",28352.299,1,0.100,18767.000,0.200,4389.000,0.300,529.000,0.500,46.000,1.000,8.000,5.000,0
"05/03/07","08:02:53",24013.000,"cc",28315.369,1,0.100,18929.000,0.200,4493.000,0.300,526.000,0.500,49.000,1.000,16.000,5.000,0
"05/03/07","08:02:59",24019.000,"cc",28284.109,1,0.100,19070.000,0.200,4282.000,0.300,595.000,0.500,58.000,1.000,14.000,5.000,0
"05/03/07","08:03:05",23925.000,"cc",28330.391,1,0.100,19050.000,0.200,4286.000,0.300,521.000,0.500,55.000,1.000,13.000,5.000,0
"05/03/07","08:03:11",23922.000,"cc",28282.889,1,0.100,18793.000,0.200,4539.000,0.300,530.000,0.500,43.000,1.000,17.000,5.000,0
"05/03/07","08:03:17",24256.000,"cc",28292.691,1,0.100,19293.000,0.200,4350.000,0.300,549.000,0.500,49.000,1.000,15.000,5.000,0
"05/03/07","08:03:23",24033.000,"cc",28355.172,1,0.100,18972.000,0.200,4458.000,0.300,525.000,0.500,57.000,1.000,21.000,5.000,0
"05/03/07","08:03:29",23933.000,"cc",28324.891,1,0.100,18959.000,0.200,4330.000,0.300,575.000,0.500,56.000,1.000,13.000,5.000,0
"05/03/07","08:03:35",23914.000,"cc",28326.957,1,0.100,18782.000,0.200,4493.000,0.300,574.000,0.500,50.000,1.000,15.000,5.000,0
"05/03/07","08:03:41",23751.000,"cc",28300.467,1,0.100,18742.000,0.200,4418.000,0.300,511.000,0.500,64.000,1.000,16.000,5.000,0
"05/03/07","08:03:47",24288.000,"cc",28267.125,1,0.100,19141.000,0.200,4522.000,0.300,564.000,0.500,51.000,1.000,10.000,5.000,0
"05/03/07","08:03:53",23870.000,"cc",28317.184,1,0.100,18861.000,0.200,4423.000,0.300,528.000,0.500,45.000,1.000,13.000,5.000,0
"05/03/07","08:03:59",23955.000,"cc",28372.059,1,0.100,18971.000,0.200,4407.000,0.300,525.000,0.500,45.000,1.000,7.000,5.000,0
"05/03/07","08:04:05",23951.000,"cc",28342.203,1,0.100,18848.000,0.200,4462.000,0.300,568.000,0.500,57.000,1.000,16.000,5.000,0
"05/03/07","08:04:11",23910.000,"cc",28280.824,1,0.100,18922.000,0.200,4375.000,0.300,530.000,0.500,66.000,1.000,17.000,5.000,0
"05/03/07","08:04:17",23532.000,"cc",28298.748,1,0.100,18666.000,0.200,4253.000,0.300,556.000,0.500,47.000,1.000,10.000,5.000,0
"05/03/07","08:04:23",23736.000,"cc",28368.236,1,0.100,18721.000,0.200,4389.000,0.300,561.000,0.500,44.000,1.000,21.000,5.000,0
"05/03/07","08:04:29",24032.000,"cc",28345.789,1,0.100,18973.000,0.200,4410.000,0.300,566.000,0.500,70.000,1.000,13.000,5.000,0
"05/03/07","08:04:35",23764.000,"cc",28300.533,1,0.100,18783.000,0.200,4385.000,0.300,528.000,0.500,56.000,1.000,12.000,5.000,0
"05/03/07","08:04:41",23556.000,"cc",28297.584,1,0.100,18537.000,0.200,4417.000,0.300,535.000,0.500,54.000,1.000,13.000,5.000,0
"05/03/07","08:04:47",23362.000,"cc",28357.518,1,0.100,18501.000,0.200,4289.000,0.300,505.000,0.500,55.000,1.000,12.000,5.000,0
"05/03/07","08:04:53",23629.000,"cc",28280.650,1,0.100,18713.000,0.200,4309.000,0.300,548.000,0.500,44.000,1.000,15.000,5.000,0
"05/03/07","08:04:59",23510.000,"cc",28310.020,1,0.100,18670.000,0.200,4244.000,0.300,536.000,0.500,45.000,1.000,15.000,5.000,0
"05/03/07","08:05:05",23576.000,"cc",28359.061,1,0.100,18663.000,0.200,4298.000,0.300,543.000,0.500,53.000,1.000,19.000,5.000,0
"05/03/07","08:05:11",23481.000,"cc",28294.647,1,0.100,18527.000,0.200,4320.000,0.300,567.000,0.500,57.000,1.000,10.000,5.000,0
"05/03/07","08:05:17",23446.000,"cc",28289.498,1,0.100,18505.000,0.200,4348.000,0.300,527.000,0.500,55.000,1.000,11.000,5.000,0
"05/03/07","08:05:23",23255.000,"cc",28323.619,1,0.100,18305.000,0.200,4370.000,0.300,505.000,0.500,62.000,1.000,13.000,5.000,0
"05/03/07","08:05:29",23516.000,"cc",28312.920,1,0.100,18574.000,0.200,4345.000,0.300,526.000,0.500,59.000,1.000,12.000,5.000,0
"05/03/07","08:05:35",23525.000,"cc",28291.227,1,0.100,18573.000,0.200,4345.000,0.300,549.000,0.500,44.000,1.000,14.000,5.000,0
"05/03/07","08:05:41",24075.000,"cc",28343.148,1,0.100,19031.000,0.200,4421.000,0.300,567.000,0.500,43.000,1.000,13.000,5.000,0
"05/03/07","08:05:47",23491.000,"cc",28336.277,1,0.100,18546.000,0.200,4317.000,0.300,559.000,0.500,54.000,1.000,15.000,5.000,0
"05/03/07","08:05:53",23783.000,"cc",28288.201,1,0.100,18740.000,0.200,4452.000,0.300,518.000,0.500,55.000,1.000,18.000,5.000,0
"05/03/07","08:05:59",23574.000,"cc",28270.459,1,0.100,18506.000,0.200,4456.000,0.300,542.000,0.500,63.000,1.000,7.000,5.000,0
"05/03/07","08:06:05",23615.000,"cc",28314.359,1,0.100,18656.000,0.200,4357.000,0.300,547.000,0.500,45.000,1.000,10.000,5.000,0
"05/03/07","08:06:11",23646.000,"cc",28306.658,1,0.100,18644.000,0.200,4397.000,0.300,534.000,0.500,56.000,1.000,15.000,5.000,0
"05/03/07","08:06:17",23630.000,"cc",28321.395,1,0.100,18657.000,0.200,4370.000,0.300,528.000,0.500,64.000,1.000,11.000,5.000,0
"05/03/07","08:06:23",23458.000,"cc",28313.438,1,0.100,18597.000,0.200,4264.000,0.300,536.000,0.500,51.000,1.000,10.000,5.000,0
"05/03/07","08:06:29",23558.000,"cc",28365.047,1,0.100,18555.000,0.200,4440.000,0.300,508.000,0.500,45.000,1.000,10.000,5.000,0
"05/03/07","08:06:35",23745.000,"cc",28361.090,1,0.100,18824.000,0.200,4295.000,0.300,559.000,0.500,53.000,1.000,14.000,5.000,0
"05/03/07","08:06:41",23342.000,"cc",28336.961,1,0.100,18509.000,0.200,4253.000,0.300,517.000,0.500,46.000,1.000,17.000,5.000,0
"05/03/07","08:06:47",23452.000,"cc",28335.758,1,0.100,18466.000,0.200,4374.000,0.300,542.000,0.500,48.000,1.000,22.000,5.000,0
"05/03/07","08:06:53",23194.000,"cc",28293.541,1,0.100,18346.000,0.200,4284.000,0.300,497.000,0.500,49.000,1.000,18.000,5.000,0
"05/03/07","08:06:59",23481.000,"cc",28288.842,1,0.100,18607.000,0.200,4295.000,0.300,529.000,0.500,43.000,1.000,7.000,5.000,0
"05/03/07","08:07:05",23483.000,"cc",28294.027,1,0.100,18560.000,0.200,4299.000,0.300,560.000,0.500,50.000,1.000,14.000,5.000,0
"05/03/07","08:07:11",23373.000,"cc",28382.025,1,0.100,18442.000,0.200,4356.000,0.300,511.000,0.500,50.000,1.000,14.000,5.000,0
"05/03/07","08:07:17",23256.000,"cc",28281.346,1,0.100,18392.000,0.200,4238.000,0.300,576.000,0.500,43.000,1.000,7.000,5.000,0
"05/03/07","08:07:23",23218.000,"cc",28311.072,1,0.100,18418.000,0.200,4226.000,0.300,514.000,0.500,45.000,1.000,15.000,5.000,0
"05/03/07","08:07:29",23245.000,"cc",28319.744,1,0.100,18355.000,0.200,4304.000,0.300,518.000,0.500,49.000,1.000,19.000,5.000,0
"05/03/07","08:07:35",22927.000,"cc",28317.440,1,0.100,18149.000,0.200,4194.000,0.300,516.000,0.500,57.000,1.000,11.000,5.000,0
"05/03/07","08:07:41",22850.000,"cc",28320.469,1,0.100,18071.000,0.200,4225.000,0.300,488.000,0.500,56.000,1.000,10.000,5.000,0
"05/03/07","08:07:47",23472.000,"cc",28354.574,1,0.100,18531.000,0.200,4335.000,0.300,549.000,0.500,45.000,1.000,12.000,5.000,0
"05/03/07","08:07:53",23000.000,"cc",28334.906,1,0.100,18220.000,0.200,4167.000,0.300,550.000,0.500,46.000,1.000,17.000,5.000,0
"05/03/07","08:07:59",22882.000,"cc",28248.590,1,0.100,18088.000,0.200,4224.000,0.300,484.000,0.500,70.000,1.000,16.000,5.000,0
"05/03/07","08:08:05",23195.000,"cc",28288.904,1,0.100,18349.000,0.200,4288.000,0.300,490.000,0.500,45.000,1.000,23.000,5.000,0
"05/03/07","08:08:11",22902.000,"cc",28327.799,1,0.100,18112.000,0.200,4196.000,0.300,520.000,0.500,62.000,1.000,12.000,5.000,0
"05/03/07","08:08:17",23082.000,"cc",28314.639,1,0.100,18204.000,0.200,4282.000,0.300,530.000,0.500,47.000,1.000,19.000,5.000,0
"05/03/07","08:08:23",23126.000,"cc",28344.512,1,0.100,18388.000,0.200,4216.000,0.300,470.000,0.500,38.000,1.000,14.000,5.000,0
"05/03/07","08:08:29",22792.000,"cc",28316.469,1,0.100,17945.000,0.200,4289.000,0.300,509.000,0.500,38.000,1.000,11.000,5.000,0
"05/03/07","08:08:35",23052.000,"cc",28300.670,1,0.100,18309.000,0.200,4198.000,0.300,478.000,0.500,51.000,1.000,16.000,5.000,0
"05/03/07","08:08:41",22768.000,"cc",28409.283,1,0.100,17899.000,0.200,4239.000,0.300,550.000,0.500,61.000,1.000,19.000,5.000,0
"05/03/07","08:08:47",22911.000,"cc",28292.098,1,0.100,18110.000,0.200,4224.000,0.300,498.000,0.500,59.000,1.000,20.000,5.000,0
"05/03/07","08:08:53",23144.000,"cc",28314.492,1,0.100,18228.000,0.200,4326.000,0.300,516.000,0.500,57.000,1.000,17.000,5.000,0
"05/03/07","08:08:59",22483.000,"cc",28308.990,1,0.100,17623.000,0.200,4274.000,0.300,518.000,0.500,57.000,1.000,11.000,5.000,0
"05/03/07","08:09:05",22684.000,"cc",28362.752,1,0.100,17896.000,0.200,4167.000,0.300,546.000,0.500,60.000,1.000,15.000,5.000,0
"05/03/07","08:09:11",22343.000,"cc",28340.850,1,0.100,17587.000,0.200,4155.000,0.300,513.000,0.500,64.000,1.000,24.000,5.000,0
"05/03/07","08:09:17",22669.000,"cc",28264.805,1,0.100,17771.000,0.200,4317.000,0.300,510.000,0.500,58.000,1.000,13.000,5.000,0
"05/03/07","08:09:23",22597.000,"cc",28300.707,1,0.100,17877.000,0.200,4116.000,0.300,535.000,0.500,53.000,1.000,16.000,5.000,0
"05/03/07","08:09:29",22069.000,"cc",28319.092,1,0.100,17358.000,0.200,4114.000,0.300,525.000,0.500,55.000,1.000,17.000,5.000,0
"05/03/07","08:09:35",22405.000,"cc",28325.223,1,0.100,17791.000,0.200,4036.000,0.300,498.000,0.500,63.000,1.000,17.000,5.000,0
"05/03/07","08:09:41",22252.000,"cc",28325.971,1,0.100,17555.000,0.200,4162.000,0.300,459.000,0.500,60.000,1.000,16.000,5.000,0
"05/03/07","08:09:47",22365.000,"cc",28336.352,1,0.100,17634.000,0.200,4128.000,0.300,523.000,0.500,64.000,1.000,16.000,5.000,0
"05/03/07","08:09:53",22400.000,"cc",28316.834,1,0.100,17721.000,0.200,4061.000,0.300,545.000,0.500,56.000,1.000,17.000,5.000,0
"05/03/07","08:09:59",22288.000,"cc",28288.775,1,0.100,17442.000,0.200,4247.000,0.300,528.000,0.500,49.000,1.000,22.000,5.000,0
"05/03/07","08:10:05",22109.000,"cc",28347.061,1,0.100,17491.000,0.200,4050.000,0.300,503.000,0.500,56.000,1.000,9.000,5.000,0
"05/03/07","08:10:11",22177.000,"cc",28341.385,1,0.100,17568.000,0.200,4021.000,0.300,514.000,0.500,55.000,1.000,19.000,5.000,0
"05/03/07","08:10:17",22103.000,"cc",28290.684,1,0.100,17525.000,0.200,4044.000,0.300,466.000,0.500,56.000,1.000,12.000,5.000,0
"05/03/07","08:10:23",22043.000,"cc",28314.272,1,0.100,17348.000,0.200,4129.000,0.300,487.000,0.500,64.000,1.000,15.000,5.000,0
"05/03/07","08:10:29",21774.000,"cc",28291.606,1,0.100,17038.000,0.200,4125.000,0.300,540.000,0.500,60.000,1.000,11.000,5.000,0
"05/03/07","08:10:35",22044.000,"cc",28342.690,1,0.100,17363.000,0.200,4082.000,0.300,513.000,0.500,72.000,1.000,14.000,5.000,0
"05/03/07","08:10:41",22005.000,"cc",28316.596,1,0.100,17503.000,0.200,3965.000,0.300,480.000,0.500,42.000,1.000,15.000,5.000,0
"05/03/07","08:10:47",21890.000,"cc",28374.594,1,0.100,17108.000,0.200,4192.000,0.300,519.000,0.500,54.000,1.000,17.000,5.000,0
"05/03/07","08:10:53",21916.000,"cc",28249.068,1,0.100,17380.000,0.200,3989.000,0.300,473.000,0.500,58.000,1.000,16.000,5.000,0
"05/03/07","08:10:59",21980.000,"cc",28302.813,1,0.100,17359.000,0.200,4048.000,0.300,510.000,0.500,54.000,1.000,9.000,5.000,0
"05/03/07","08:11:05",22361.000,"cc",28319.637,1,0.100,17679.000,0.200,4097.000,0.300,522.000,0.500,49.000,1.000,14.000,5.000,0
"05/03/07","08:11:11",22097.000,"cc",28315.897,1,0.100,17466.000,0.200,4063.000,0.300,508.000,0.500,49.000,1.000,11.000,5.000,0
"05/03/07","08:11:17",22332.000,"cc",28333.984,1,0.100,17614.000,0.200,4142.000,0.300,493.000,0.500,63.000,1.000,20.000,5.000,0
"05/03/07","08:11:23",21847.000,"cc",28365.799,1,0.100,17253.000,0.200,4059.000,0.300,476.000,0.500,42.000,1.000,17.000,5.000,0
"05/03/07","08:11:29",22060.000,"cc",28325.904,1,0.100,17524.000,0.200,4034.000,0.300,457.000,0.500,37.000,1.000,8.000,5.000,0
"05/03/07","08:11:35",22083.000,"cc",28324.283,1,0.100,17448.000,0.200,4104.000,0.300,489.000,0.500,34.000,1.000,8.000,5.000,0
"05/03/07","08:11:41",21971.000,"cc",28325.699,1,0.100,17388.000,0.200,3981.000,0.300,542.000,0.500,45.000,1.000,15.000,5.000,0
"05/03/07","08:11:47",22037.000,"cc",28314.736,1,0.100,17556.000,0.200,3929.000,0.300,497.000,0.500,47.000,1.000,8.000,5.000,0
"05/03/07","08:11:53",22554.000,"cc",28335.203,1,0.100,17706.000,0.200,4289.000,0.300,513.000,0.500,35.000,1.000,11.000,5.000,0
"05/03/07","08:11:59",22322.000,"cc",28289.178,1,0.100,17782.000,0.200,3990.000,0.300,499.000,0.500,43.000,1.000,8.000,5.000,0
"05/03/07","08:12:05",22355.000,"cc",28328.856,1,0.100,17683.000,0.200,4092.000,0.300,528.000,0.500,43.000,1.000,9.000,5.000,0
"05/03/07","08:12:11",22678.000,"cc",28325.551,1,0.100,17979.000,0.200,4159.000,0.300,494.000,0.500,39.000,1.000,7.000,5.000,0
"05/03/07","08:12:17",22811.000,"cc",28343.832,1,0.100,18096.000,0.200,4139.000,0.300,524.000,0.500,43.000,1.000,9.000,5.000,0
"05/03/07","08:12:23",22964.000,"cc",28303.770,1,0.100,18239.000,0.200,4151.000,0.300,539.000,0.500,24.000,1.000,11.000,5.000,0
"05/03/07","08:12:29",23208.000,"cc",28269.082,1,0.100,18376.000,0.200,4278.000,0.300,508.000,0.500,38.000,1.000,8.000,5.000,0
"05/03/07","08:12:35",23342.000,"cc",28304.717,1,0.100,18472.000,0.200,4299.000,0.300,508.000,0.500,56.000,1.000,7.000,5.000,0
"05/03/07","08:12:41",23140.000,"cc",28324.496,1,0.100,18352.000,0.200,4269.000,0.300,484.000,0.500,28.000,1.000,7.000,5.000,0
"05/03/07","08:12:47",23930.000,"cc",28339.940,1,0.100,18903.000,0.200,4458.000,0.300,519.000,0.500,41.000,1.000,9.000,5.000,0
"05/03/07","08:12:53",24052.000,"cc",28323.789,1,0.100,19092.000,0.200,4376.000,0.300,534.000,0.500,45.000,1.000,5.000,5.000,0
"05/03/07","08:12:59",24310.000,"cc",28329.707,1,0.100,19123.000,0.200,4597.000,0.300,552.000,0.500,31.000,1.000,7.000,5.000,0
"05/03/07","08:13:05",24886.000,"cc",28282.402,1,0.100,19720.000,0.200,4570.000,0.300,554.000,0.500,36.000,1.000,6.000,5.000,0
"05/03/07","08:13:11",25266.000,"cc",28311.371,1,0.100,20019.000,0.200,4606.000,0.300,598.000,0.500,37.000,1.000,6.000,5.000,0
"05/03/07","08:13:17",25257.000,"cc",28327.359,1,0.100,20031.000,0.200,4587.000,0.300,592.000,0.500,42.000,1.000,5.000,5.000,0
"05/03/07","08:13:23",25446.000,"cc",28290.809,1,0.100,20118.000,0.200,4672.000,0.300,618.000,0.500,33.000,1.000,5.000,5.000,0
"05/03/07","08:13:29",25318.000,"cc",28292.231,1,0.100,20009.000,0.200,4712.000,0.300,561.000,0.500,31.000,1.000,5.000,5.000,0
"05/03/07","08:13:35",25782.000,"cc",28320.508,1,0.100,20455.000,0.200,4719.000,0.300,570.000,0.500,34.000,1.000,4.000,5.000,0
"05/03/07","08:13:41",26002.000,"cc",28315.996,1,0.100,20630.000,0.200,4763.000,0.300,564.000,0.500,40.000,1.000,5.000,5.000,0
"05/03/07","08:13:47",26468.000,"cc",28301.734,1,0.100,20943.000,0.200,4878.000,0.300,605.000,0.500,36.000,1.000,6.000,5.000,0
"05/03/07","08:13:53",26594.000,"cc",28349.168,1,0.100,21006.000,0.200,4953.000,0.300,595.000,0.500,37.000,1.000,3.000,5.000,0
"05/03/07","08:13:59",26768.000,"cc",28321.143,1,0.100,21241.000,0.200,4881.000,0.300,604.000,0.500,34.000,1.000,8.000,5.000,0
"05/03/07","08:14:05",26809.000,"cc",28320.209,1,0.100,21337.000,0.200,4852.000,0.300,578.000,0.500,38.000,1.000,4.000,5.000,0
"05/03/07","08:14:11",27226.000,"cc",28288.252,1,0.100,21511.000,0.200,5068.000,0.300,605.000,0.500,36.000,1.000,6.000,5.000,0
"05/03/07","08:14:17",27362.000,"cc",28335.664,1,0.100,21651.000,0.200,5016.000,0.300,648.000,0.500,44.000,1.000,3.000,5.000,0
"05/03/07","08:14:23",27181.000,"cc",28320.135,1,0.100,21635.000,0.200,4842.000,0.300,651.000,0.500,46.000,1.000,7.000,5.000,0
"05/03/07","08:14:29",27846.000,"cc",28328.338,1,0.100,22054.000,0.200,5079.000,0.300,666.000,0.500,41.000,1.000,6.000,5.000,0
"05/03/07","08:14:35",27994.000,"cc",28354.459,1,0.100,22104.000,0.200,5236.000,0.300,610.000,0.500,39.000,1.000,5.000,5.000,0
"05/03/07","08:14:41",28129.000,"cc",28291.762,1,0.100,22322.000,0.200,5146.000,0.300,619.000,0.500,35.000,1.000,7.000,5.000,0
"05/03/07","08:14:47",28102.000,"cc",28321.676,1,0.100,22237.000,0.200,5207.000,0.300,614.000,0.500,42.000,1.000,2.000,5.000,0
"05/03/07","08:14:53",28608.000,"cc",28297.691,1,0.100,22705.000,0.200,5254.000,0.300,614.000,0.500,31.000,1.000,4.000,5.000,0
"05/03/07","08:14:59",28370.000,"cc",28334.490,1,0.100,22523.000,0.200,5194.000,0.300,597.000,0.500,54.000,1.000,2.000,5.000,0
"05/03/07","08:15:05",28536.000,"cc",28301.293,1,0.100,22576.000,0.200,5243.000,0.300,673.000,0.500,38.000,1.000,6.000,5.000,0
"05/03/07","08:15:11",28898.000,"cc",28342.789,1,0.100,22941.000,0.200,5255.000,0.300,662.000,0.500,37.000,1.000,3.000,5.000,0
"05/03/07","08:15:17",29151.000,"cc",28272.594,1,0.100,23116.000,0.200,5315.000,0.300,667.000,0.500,48.000,1.000,5.000,5.000,0
"05/03/07","08:15:23",28922.000,"cc",28308.148,1,0.100,23026.000,0.200,5190.000,0.300,662.000,0.500,42.000,1.000,2.000,5.000,0
"05/03/07","08:15:29",29113.000,"cc",28309.547,1,0.100,22989.000,0.200,5461.000,0.300,622.000,0.500,37.000,1.000,4.000,5.000,0
"05/03/07","08:15:35",29600.000,"cc",28307.838,1,0.100,23449.000,0.200,5456.000,0.300,654.000,0.500,37.000,1.000,4.000,5.000,0
"05/03/07","08:15:41",29085.000,"cc",28330.316,1,0.100,23079.000,0.200,5331.000,0.300,617.000,0.500,49.000,1.000,9.000,5.000,0
"05/03/07","08:15:47",29607.000,"cc",28313.311,1,0.100,23416.000,0.200,5489.000,0.300,657.000,0.500,39.000,1.000,6.000,5.000,0
"05/03/07","08:15:53",29432.000,"cc",28285.811,1,0.100,23330.000,0.200,5413.000,0.300,650.000,0.500,36.000,1.000,3.000,5.000,0
"05/03/07","08:15:59",29645.000,"cc",28311.371,1,0.100,23503.000,0.200,5461.000,0.300,634.000,0.500,44.000,1.000,3.000,5.000,0
"05/03/07","08:16:05",29768.000,"cc",28343.096,1,0.100,23680.000,0.200,5413.000,0.300,636.000,0.500,38.000,1.000,1.000,5.000,0
"05/03/07","08:16:11",29572.000,"cc",28328.758,1,0.100,23422.000,0.200,5462.000,0.300,648.000,0.500,37.000,1.000,3.000,5.000,0
"05/03/07","08:16:17",29629.000,"cc",28338.984,1,0.100,23432.000,0.200,5507.000,0.300,646.000,0.500,40.000,1.000,4.000,5.000,0
"05/03/07","08:16:23",29994.000,"cc",28301.772,1,0.100,23683.000,0.200,5579.000,0.300,687.000,0.500,42.000,1.000,3.000,5.000,0
"05/03/07","08:16:29",30157.000,"cc",28316.092,1,0.100,23965.000,0.200,5502.000,0.300,651.000,0.500,35.000,1.000,4.000,5.000,0
"05/03/07","08:16:35",30883.000,"cc",28350.945,1,0.100,24554.000,0.200,5591.000,0.300,692.000,0.500,34.000,1.000,12.000,5.000,0
"05/03/07","08:16:41",30779.000,"cc",28335.004,1,0.100,24341.000,0.200,5653.000,0.300,736.000,0.500,45.000,1.000,4.000,5.000,0
"05/03/07","08:16:47",30847.000,"cc",28264.277,1,0.100,24571.000,0.200,5570.000,0.300,672.000,0.500,32.000,1.000,2.000,5.000,0
"05/03/07","08:16:53",30829.000,"cc",28277.647,1,0.100,24319.000,0.200,5751.000,0.300,719.000,0.500,35.000,1.000,5.000,5.000,0
"05/03/07","08:16:59",30803.000,"cc",28366.576,1,0.100,24533.000,0.200,5609.000,0.300,623.000,0.500,32.000,1.000,6.000,5.000,0
"05/03/07","08:17:05",31506.000,"cc",28319.037,1,0.100,25036.000,0.200,5703.000,0.300,729.000,0.500,36.000,1.000,2.000,5.000,0
"05/03/07","08:17:11",31640.000,"cc",28339.637,1,0.100,25099.000,0.200,5737.000,0.300,754.000,0.500,45.000,1.000,5.000,5.000,0
"05/03/07","08:17:17",31825.000,"cc",28296.705,1,0.100,25235.000,0.200,5879.000,0.300,681.000,0.500,29.000,1.000,1.000,5.000,0
"05/03/07","08:17:23",32234.000,"cc",28344.859,1,0.100,25540.000,0.200,5940.000,0.300,702.000,0.500,49.000,1.000,3.000,5.000,0
"05/03/07","08:17:29",32700.000,"cc",28305.740,1,0.100,25975.000,0.200,6016.000,0.300,670.000,0.500,35.000,1.000,4.000,5.000,0
"05/03/07","08:17:35",32368.000,"cc",28323.856,1,0.100,25582.000,0.200,6020.000,0.300,724.000,0.500,38.000,1.000,4.000,5.000,0